Flag for Myanmar Weather past 2 weeks in Yangon, Myanmar

88 °F

Rain. Cloudy.

Feels Like: 94 °F
Forecast: 76 / 92 °F
Wind: 5 mph from Northeast

Location: Rangoon Airport

Current Time: Nov 29, 2015 at 12:37:56 PM

Latest Report: Nov 29, 2015 at 11:30 AM

Visibility: 5 mi

Pressure: 30.01 "Hg

Humidity: 59%

Dew point: 72 °F

Location of YangonLocation

Historic Weather in Yangon — Graph


Yangon temperature yesterday

Maximum temperature yesterday: 93 °F (at 2:00 PM)
Minimum temperature yesterday: 73 °F (at 4:00 AM)
Average temperature yesterday: 84 °F

Past Weeks' High & Low Weather Summary

High93 °F (Nov 14, 2:00 PM)100% (Nov 24, 10:00 PM)30.01 "Hg (Nov 24, 10:00 PM)
Low68 °F (Nov 25, 5:30 AM)49% (Nov 17, 1:30 PM)29.77 "Hg (Nov 14, 3:30 PM)
Average84 °F72%29.87 "Hg
* Reported Nov 14 10:30 AM — Nov 29 11:00 AM, Yangon, Weather by CustomWeather, © 2015

Note: Actual official high and low records may vary slightly from our data, if they occured in-between our weather recording intervals... More about our weather records


Yangon weather history for previous 24 hours

Time TempWeatherWind HumidityBarometerVisibility
11:00 AM
Sun, Nov 29
88 °FRain. Cloudy.9 mph59%30.01 "Hg5 mi
10:00 AM86 °FClear.10 mph62%30.01 "Hg6 mi
9:30 AM82 °FClear.9 mph74%30.01 "Hg6 mi
9:00 AM82 °FClear.9 mph74%30.01 "Hg6 mi
8:30 AM79 °FClear.3 mph79%30.01 "Hg5 mi
8:00 AM77 °FClear.7 mph89%30.01 "Hg5 mi
7:30 AM75 °FClear.3 mph94%29.98 "Hg5 mi
7:00 AM75 °FClear.5 mph78%29.98 "Hg4 mi
6:30 AM73 °FClear.5 mph94%29.95 "Hg4 mi
6:00 AM73 °FClear.2 mph94%29.95 "Hg4 mi
5:30 AM73 °FClear.2 mph94%29.95 "Hg4 mi
4:00 AM75 °FClear.2 mph94%29.95 "Hg4 mi
3:00 AM75 °FClear.2 mph94%29.95 "Hg4 mi
2:30 AM77 °FClear.3 mph89%29.95 "Hg4 mi
2:00 AM77 °FClear.2 mph89%29.95 "Hg4 mi
12:30 AM81 °FClear.3 mph79%29.98 "Hg4 mi
12:00 AM81 °FClear.3 mph79%29.98 "Hg4 mi
11:30 PM
Sat, Nov 28
81 °FClear.3 mph79%29.98 "Hg4 mi
11:00 PM81 °FClear.2 mph79%29.98 "Hg4 mi
10:30 PM81 °FClear.3 mph79%29.98 "Hg4 mi
10:00 PM81 °FClear.2 mph79%29.98 "Hg4 mi
9:30 PM81 °FClear.3 mph79%29.98 "Hg4 mi
9:00 PM82 °FClear.3 mph74%29.98 "Hg4 mi
8:30 PM84 °FPassing clouds.3 mph66%29.98 "Hg4 mi
8:00 PM84 °FPassing clouds.3 mph66%29.95 "Hg4 mi
7:30 PM84 °FPassing clouds.3 mph66%29.95 "Hg4 mi
7:00 PM86 °FPassing clouds.3 mph62%29.95 "Hg4 mi
6:30 PM86 °FPassing clouds.5 mph62%29.92 "Hg4 mi
6:00 PM86 °FPassing clouds.3 mph62%29.92 "Hg4 mi
5:30 PM88 °FPassing clouds.5 mph59%29.92 "Hg4 mi
5:00 PM90 °FPassing clouds.5 mph55%29.89 "Hg5 mi
4:30 PM90 °FPassing clouds.3 mph59%29.89 "Hg5 mi
4:00 PM91 °FScattered clouds.5 mph52%29.89 "Hg5 mi
3:30 PM91 °FScattered clouds.6 mph52%29.89 "Hg5 mi
3:00 PM91 °FScattered clouds.6 mph52%29.89 "Hg5 mi
2:00 PM93 °FScattered clouds.8 mph56%29.89 "Hg6 mi
1:00 PM91 °FScattered clouds.3 mph52%29.92 "Hg6 mi
12:30 PM91 °FScattered clouds.7 mph52%29.95 "Hg6 mi
12:00 PM91 °FScattered clouds.5 mph52%29.95 "Hg6 mi
Weather by CustomWeather, © 2015

See weather overviewHow to use our weather pages